This is the latest recevied weather packets stored in our database for station/object KE8CZD. If no packets are shown the sender has not sent any weather packets the latest 10 day(s).
| Time | Temp. | Humidity | Pressure | Rain* | Wind** | Luminosity | Snow |
|---|---|---|---|---|---|---|---|
| 1777463868 | 7.78° C | 94% | 1010.6 hPa | 2.03 mm | - | - | - |
| 1777463508 | 7.78° C | 93% | 1010.6 hPa | 1.78 mm | - | - | - |
| 1777463148 | 7.78° C | 93% | 1010.8 hPa | 1.27 mm | - | - | - |
| 1777462788 | 8.33° C | 91% | 1010.9 hPa | 0.51 mm | - | - | - |
| 1777462429 | 8.33° C | 89% | 1011.1 hPa | 0.51 mm | - | - | - |
| 1777462068 | 8.33° C | 87% | 1010.8 hPa | 0.25 mm | - | - | - |
| 1777461708 | 8.33° C | 85% | 1010.8 hPa | 0.25 mm | - | - | - |
| 1777461348 | 8.89° C | 82% | 1010.7 hPa | 0.25 mm | - | - | - |
| 1777460988 | 9.44° C | 75% | 1010.4 hPa | 0 mm | - | - | - |
| 1777460628 | 9.44° C | 71% | 1010.2 hPa | 0 mm | - | - | - |
| 1777460269 | 10° C | 69% | 1010.3 hPa | 0 mm | - | - | - |
| 1777459908 | 10° C | 67% | 1010 hPa | 0 mm | - | - | - |
| 1777459548 | 10° C | 66% | 1009.6 hPa | 0 mm | - | - | - |
| 1777459188 | 10.56° C | 65% | 1009.4 hPa | 0 mm | - | - | - |
| 1777458829 | 10.56° C | 65% | 1009.2 hPa | 0 mm | - | - | - |
| 1777458468 | 10° C | 66% | 1008.6 hPa | 0 mm | - | - | - |
| 1777458108 | 10° C | 66% | 1008.8 hPa | 0 mm | - | - | - |
| 1777457748 | 10° C | 67% | 1009.1 hPa | 0 mm | - | - | - |
| 1777457388 | 10° C | 67% | 1009 hPa | 0 mm | - | - | - |
| 1777457028 | 10° C | 66% | 1008.3 hPa | 0 mm | - | - | - |
| 1777456669 | 10° C | 65% | 1008.7 hPa | 0 mm | - | - | - |
| 1777456308 | 10° C | 65% | 1008.7 hPa | 0 mm | - | - | - |
| 1777455948 | 10° C | 65% | 1008.9 hPa | 0 mm | - | - | - |
| 1777455588 | 10° C | 66% | 1009 hPa | 0 mm | - | - | - |
| 1777455228 | 10° C | 66% | 1008.9 hPa | 0 mm | - | - | - |
* Rain latest hour (hover to see other rain measurements)
** Current wind speed in m/s (hover to see current wind gust speed)